Location: Bodest
(46.3000°N, 22.5667°E)
Time: 08:55:24
(UTC+00:00)

Cosmos 1953 - Pass Details

Date: 16 October 2021
Orbit: 537 x 556 km, 82.5° (Epoch: 07 December)

Event Time Altitude Azimuth Distance (km) Brightness Sun altitude
Rises 16:35:41 0° 171° (S) 2,718 5.8 -10.1°
Reaches altitude 10° 16:37:55 10° 164° (SSE) 1,831 4.8 -10.5°
Maximum altitude 16:41:44 42° 93° (E) 798 2.7 -11.2°
Drops below altitude 10° 16:45:35 10° 22° (NNE) 1,853 4.8 -11.8°
Sets 16:47:51 0° 16° (NNE) 2,754 5.7 -12.2°
